Regional Weather Roundup
Issued by NWS Kansas City/Pleasant Hill, MO

Home | Current Version | Previous Version | Text Only | Print | Product List | Glossary On
Versions: 1 2 3 4 5 6 7 8 9 10 11 12 13 14 15 16 17 18 19 20 21 22 23 24 25 26 27 28 29 30 31 32 33 34 35 36 37 38 39 40 41 42 43 44 45 46 47 48 49 50
161
ASUS43 KEAX 272310
RWREAX

WEATHER ROUNDUP FOR EASTERN KANSAS AND NORTHWEST MISSOURI
NATIONAL WEATHER SERVICE KANSAS CITY/PLEASANT HILL MO
600 PM CDT FRI MAY 27 2016

KSZ040-057-103>105-MOZ028-029-037-043-280000-
...KANSAS CITY METROPOLITAN AREA...

CITY           SKY/WX    TMP DP  RH WIND       PRES   REMARKS
K.C. INTL      CLOUDY    69  65  86 E6        29.70F
K.C. DOWNTOWN  MOSUNNY   72  66  81 N3        29.68F
LEES SUMMIT    CLOUDY    75  64  68 S13       29.70F
OLATHE - IXD   CLOUDY    70  61  73 SE5       29.69F
OLATHE - OJC   CLOUDY    72  60  66 S6        29.70F
LAWRENCE       LGT RAIN  73  65  75 S10       29.68F

$$

MOZ001>008-011>017-020>025-030>033-038>040-044>046-053-054-280000-
...NORTHERN AND CENTRAL MISSOURI...

CITY           SKY/WX    TMP DP  RH WIND       PRES   REMARKS
ST. JOSEPH     PTSUNNY   73  65  75 E7        29.68F
MOSBY          CLOUDY    72  63  73 N5        29.70F
WARRENSBURG    CLOUDY    73  68  83 S6        29.70F
WHITEMAN AFB   CLOUDY    75  70  83 SW10      29.70F
CLINTON        LGT RAIN  73  70  88 SE7       29.71F
SEDALIA        CLOUDY    77  69  76 S13       29.72F
WARSAW         NOT AVBL
CHILLICOTHE      N/A     79  68  69 CALM      29.70F
KIRKSVILLE     CLOUDY    82  67  60 NW5       29.70F

$$

MOZ041-047>049-056>058-063>065-088>090-097-280000-
...EASTERN AND SOUTHERN MISSOURI...

CITY           SKY/WX    TMP DP  RH WIND       PRES   REMARKS
ST. LOUIS INTL TSTM      72  66  83 S15G22    29.80F
SPIRIT OF STL  LGT RAIN  73  69  87 S8G18     29.77F
COLUMBIA       RAIN      72  70  93 E8        29.73S FOG
JEFFERSON CITY TSTM      69  66  90 SE16G25   29.74R FOG
ROLLA          PTSUNNY   72  69  90 S13       29.76F
SPRINGFIELD    CLOUDY    73  65  75 SE8       29.75S
BRANSON        CLOUDY    73  66  78 SE9       29.77F
JOPLIN         CLOUDY    73  66  78 SE5       29.72F
WEST PLAINS    CLOUDY    70  66  87 SE5       29.81F

$$

IAZ060-094-KSZ022-034>040-054-083-096-NEZ052-066-093-280000-
...KANSAS...SOUTHEAST NEBRASKA AND IOWA...

CITY           SKY/WX    TMP DP  RH WIND       PRES   REMARKS
TOPEKA         CLOUDY    73  66  78 SE7       29.69R
MANHATTAN      CLOUDY    73  65  75 S6        29.67R
EMPORIA        PTSUNNY   72  63  73 SE10      29.67R
CHANUTE        CLOUDY    76  64  66 S16       29.68S
WICHITA        LGT RAIN  66  62  87 N5        29.65F
OMAHA          CLOUDY    77  60  55 E9        29.68F
LINCOLN        CLOUDY    75  60  59 E8        29.68F
FALLS CITY     CLOUDY    74  66  76 E7        29.69R
LAMONI         CLOUDY    73  65  75 E3        29.72F
DES MOINES     PTSUNNY   76  61  59 NW6       29.73S

$$





USA.gov is the U.S. government's official web portal to all federal, state and local government web resources and services.